Time,TemperatureF,DewpointF,PressureIn,WindDirection,WindDirectionDegrees,WindSpeedMPH,WindSpeedGustMPH,Humidity,HourlyPrecipIn,Conditions,Clouds,dailyrainin,SoftwareType,DateUTC
2013-01-18 00:03:00,27.0,10.0,30.05,WNW,300,2.0,6.0,49,-99.99,,,-99.99,,2013-01-18 05:03:00,
2013-01-18 00:12:00,27.0,10.0,30.05,WNW,300,2.0,6.0,49,-99.99,,,-99.99,,2013-01-18 05:12:00,
2013-01-18 00:22:00,27.0,10.0,30.05,NW,309,0.0,4.0,49,-99.99,,,-99.99,,2013-01-18 05:22:00,
2013-01-18 00:33:00,27.0,12.0,30.07,NNW,333,0.0,5.0,53,-99.99,,,-99.99,,2013-01-18 05:33:00,
2013-01-18 00:42:00,27.0,12.0,30.07,NNW,333,0.0,5.0,53,-99.99,,,-99.99,,2013-01-18 05:42:00,
2013-01-18 00:53:00,27.0,11.0,30.09,NW,304,3.0,7.0,51,-99.99,,,-99.99,,2013-01-18 05:53:00,
2013-01-18 01:02:00,26.0,10.0,30.10,NW,309,2.0,5.0,50,-99.99,,,-99.99,,2013-01-18 06:02:00,
2013-01-18 01:12:00,26.0,10.0,30.10,NW,309,2.0,5.0,50,-99.99,,,-99.99,,2013-01-18 06:12:00,
2013-01-18 01:22:00,26.0,8.0,30.11,NW,318,1.0,11.0,46,-99.99,,,-99.99,,2013-01-18 06:22:00,
2013-01-18 01:33:00,26.0,7.0,30.09,NNW,328,0.0,7.0,44,-99.99,,,-99.99,,2013-01-18 06:33:00,
2013-01-18 01:43:00,26.0,7.0,30.09,NNW,328,0.0,7.0,44,-99.99,,,-99.99,,2013-01-18 06:43:00,
2013-01-18 01:53:00,25.0,5.0,30.09,WNW,283,2.0,10.0,41,-99.99,,,-99.99,,2013-01-18 06:53:00,
2013-01-18 02:02:00,25.0,6.0,30.09,WNW,302,0.0,7.0,43,-99.99,,,-99.99,,2013-01-18 07:02:00,
2013-01-18 02:12:00,25.0,6.0,30.09,WNW,302,0.0,7.0,43,-99.99,,,-99.99,,2013-01-18 07:12:00,
2013-01-18 02:22:00,24.0,6.0,30.11,NW,309,0.0,5.0,46,-99.99,,,-99.99,,2013-01-18 07:22:00,
2013-01-18 02:32:00,24.0,6.0,30.12,NW,304,1.0,7.0,46,-99.99,,,-99.99,,2013-01-18 07:32:00,
2013-01-18 02:42:00,24.0,6.0,30.12,NW,304,1.0,7.0,46,-99.99,,,-99.99,,2013-01-18 07:42:00,
2013-01-18 02:52:00,23.0,4.0,30.11,NNE,20,2.0,7.0,43,-99.99,,,-99.99,,2013-01-18 07:52:00,
2013-01-18 03:02:00,23.0,4.0,30.13,WNW,298,2.0,7.0,44,-99.99,,,-99.99,,2013-01-18 08:02:00,
2013-01-18 03:12:00,23.0,4.0,30.13,WNW,298,2.0,7.0,44,-99.99,,,-99.99,,2013-01-18 08:12:00,
2013-01-18 03:22:00,22.0,4.0,30.15,NW,314,1.0,5.0,45,-99.99,,,-99.99,,2013-01-18 08:22:00,
2013-01-18 03:32:00,22.0,4.0,30.13,North,10,0.0,9.0,46,-99.99,,,-99.99,,2013-01-18 08:32:00,
2013-01-18 03:42:00,22.0,4.0,30.13,North,10,0.0,9.0,46,-99.99,,,-99.99,,2013-01-18 08:42:00,
2013-01-18 03:53:00,22.0,3.0,30.12,NW,304,1.0,9.0,44,-99.99,,,-99.99,,2013-01-18 08:53:00,
2013-01-18 04:03:00,21.0,4.0,30.12,NW,315,0.0,10.0,46,-99.99,,,-99.99,,2013-01-18 09:03:00,
2013-01-18 04:12:00,21.0,4.0,30.12,NW,315,0.0,10.0,46,-99.99,,,-99.99,,2013-01-18 09:12:00,
2013-01-18 04:22:00,21.0,4.0,30.12,NW,326,5.0,9.0,47,-99.99,,,-99.99,,2013-01-18 09:22:00,
2013-01-18 04:33:00,21.0,5.0,30.15,WNW,295,5.0,9.0,49,-99.99,,,-99.99,,2013-01-18 09:33:00,
2013-01-18 04:42:00,21.0,5.0,30.15,WNW,295,5.0,9.0,49,-99.99,,,-99.99,,2013-01-18 09:42:00,
2013-01-18 04:53:00,20.0,5.0,30.14,NNW,331,7.0,12.0,52,-99.99,,,-99.99,,2013-01-18 09:53:00,
2013-01-18 05:02:00,19.0,0.0,30.15,WNW,296,7.0,14.0,43,-99.99,,,-99.99,,2013-01-18 10:02:00,
2013-01-18 05:12:00,19.0,0.0,30.15,WNW,296,7.0,14.0,43,-99.99,,,-99.99,,2013-01-18 10:12:00,
2013-01-18 05:22:00,18.0,-1.0,30.17,West,273,4.0,11.0,42,-99.99,,,-99.99,,2013-01-18 10:22:00,
2013-01-18 05:32:00,18.0,-2.0,30.16,NW,311,3.0,11.0,41,-99.99,,,-99.99,,2013-01-18 10:32:00,
2013-01-18 05:42:00,18.0,-2.0,30.16,NW,311,3.0,11.0,41,-99.99,,,-99.99,,2013-01-18 10:42:00,
2013-01-18 05:53:00,17.0,-2.0,30.19,WNW,300,7.0,14.0,42,-99.99,,,-99.99,,2013-01-18 10:53:00,
2013-01-18 06:02:00,17.0,-1.0,30.19,WNW,296,5.0,13.0,44,-99.99,,,-99.99,,2013-01-18 11:02:00,
2013-01-18 06:12:00,17.0,-1.0,30.19,WNW,296,5.0,13.0,44,-99.99,,,-99.99,,2013-01-18 11:12:00,
2013-01-18 06:23:00,16.0,-3.0,30.20,West,273,5.0,12.0,42,-99.99,,,-99.99,,2013-01-18 11:23:00,
2013-01-18 06:32:00,16.0,-2.0,30.21,ENE,67,2.0,14.0,43,-99.99,,,-99.99,,2013-01-18 11:32:00,
2013-01-18 06:42:00,16.0,-2.0,30.21,ENE,67,2.0,14.0,43,-99.99,,,-99.99,,2013-01-18 11:42:00,
2013-01-18 06:53:00,15.0,-4.0,30.23,WNW,295,4.0,11.0,42,-99.99,,,-99.99,,2013-01-18 11:53:00,
2013-01-18 07:03:00,15.0,-3.0,30.24,WNW,285,5.0,12.0,43,-99.99,,,-99.99,,2013-01-18 12:03:00,
2013-01-18 07:12:00,15.0,-3.0,30.24,WNW,285,5.0,12.0,43,-99.99,,,-99.99,,2013-01-18 12:12:00,
2013-01-18 07:23:00,14.0,-4.0,30.25,NW,320,1.0,9.0,44,-99.99,,,-99.99,,2013-01-18 12:23:00,
2013-01-18 07:33:00,14.0,-3.0,30.25,WNW,283,0.0,5.0,46,-99.99,,,-99.99,,2013-01-18 12:33:00,
2013-01-18 07:43:00,14.0,-3.0,30.25,WNW,283,0.0,5.0,46,-99.99,,,-99.99,,2013-01-18 12:43:00,
2013-01-18 07:53:00,14.0,-2.0,30.27,WNW,290,4.0,11.0,47,-99.99,,,-99.99,,2013-01-18 12:53:00,
2013-01-18 08:03:00,14.0,-2.0,30.27,WNW,295,3.0,10.0,47,-99.99,,,-99.99,,2013-01-18 13:03:00,
2013-01-18 08:12:00,14.0,-2.0,30.27,WNW,295,3.0,10.0,47,-99.99,,,-99.99,,2013-01-18 13:12:00,
2013-01-18 08:23:00,14.0,-3.0,30.29,West,272,8.0,14.0,45,-99.99,,,-99.99,,2013-01-18 13:23:00,
2013-01-18 08:33:00,14.0,-3.0,30.30,West,262,5.0,13.0,45,-99.99,,,-99.99,,2013-01-18 13:33:00,
2013-01-18 08:43:00,14.0,-3.0,30.30,West,262,5.0,13.0,45,-99.99,,,-99.99,,2013-01-18 13:43:00,
2013-01-18 08:53:00,14.0,-4.0,30.31,WNW,294,9.0,16.0,44,-99.99,,,-99.99,,2013-01-18 13:53:00,
2013-01-18 09:03:00,15.0,-2.0,30.31,WNW,288,3.0,10.0,46,-99.99,,,-99.99,,2013-01-18 14:03:00,
2013-01-18 09:12:00,15.0,-2.0,30.31,WNW,288,3.0,10.0,46,-99.99,,,-99.99,,2013-01-18 14:12:00,
2013-01-18 09:23:00,15.0,-4.0,30.32,West,276,5.0,9.0,42,-99.99,,,-99.99,,2013-01-18 14:23:00,
2013-01-18 09:33:00,15.0,-4.0,30.32,NW,317,6.0,12.0,41,-99.99,,,-99.99,,2013-01-18 14:33:00,
2013-01-18 09:42:00,15.0,-4.0,30.32,NW,317,6.0,12.0,41,-99.99,,,-99.99,,2013-01-18 14:42:00,
2013-01-18 09:53:00,16.0,-5.0,30.33,WNW,297,6.0,16.0,39,-99.99,,,-99.99,,2013-01-18 14:53:00,
2013-01-18 10:03:00,16.0,-5.0,30.33,WNW,287,5.0,15.0,39,-99.99,,,-99.99,,2013-01-18 15:03:00,
2013-01-18 10:13:00,16.0,-5.0,30.33,WNW,287,5.0,15.0,39,-99.99,,,-99.99,,2013-01-18 15:13:00,
2013-01-18 10:23:00,17.0,-4.0,30.34,NW,307,4.0,10.0,39,-99.99,,,-99.99,,2013-01-18 15:23:00,
2013-01-18 10:33:00,18.0,-3.0,30.34,WNW,283,5.0,12.0,38,-99.99,,,-99.99,,2013-01-18 15:33:00,
2013-01-18 10:43:00,18.0,-3.0,30.34,WNW,283,5.0,12.0,38,-99.99,,,-99.99,,2013-01-18 15:43:00,
2013-01-18 10:54:00,17.0,-6.0,30.34,WNW,298,8.0,18.0,35,-99.99,,,-99.99,,2013-01-18 15:54:00,
2013-01-18 11:03:00,17.0,-4.0,30.34,WNW,291,7.0,17.0,38,-99.99,,,-99.99,,2013-01-18 16:03:00,
2013-01-18 11:12:00,17.0,-4.0,30.34,WNW,291,7.0,17.0,38,-99.99,,,-99.99,,2013-01-18 16:12:00,
2013-01-18 11:23:00,18.0,-4.0,30.33,NW,308,4.0,14.0,37,-99.99,,,-99.99,,2013-01-18 16:23:00,
2013-01-18 11:33:00,18.0,-4.0,30.34,NW,313,9.0,16.0,37,-99.99,,,-99.99,,2013-01-18 16:33:00,
2013-01-18 11:42:00,18.0,-4.0,30.34,NW,313,9.0,16.0,37,-99.99,,,-99.99,,2013-01-18 16:42:00,
2013-01-18 11:53:00,19.0,-1.0,30.33,WNW,284,3.0,14.0,40,-99.99,,,-99.99,,2013-01-18 16:53:00,
2013-01-18 12:03:00,20.0,-1.0,30.33,NW,323,3.0,15.0,38,-99.99,,,-99.99,,2013-01-18 17:03:00,
2013-01-18 12:13:00,20.0,-1.0,30.33,NW,323,3.0,15.0,38,-99.99,,,-99.99,,2013-01-18 17:13:00,
2013-01-18 12:23:00,20.0,0.0,30.33,WNW,300,7.0,26.0,40,-99.99,,,-99.99,,2013-01-18 17:23:00,
2013-01-18 12:33:00,20.0,0.0,30.33,NW,313,6.0,20.0,40,-99.99,,,-99.99,,2013-01-18 17:33:00,
2013-01-18 12:43:00,20.0,0.0,30.33,NW,313,6.0,20.0,40,-99.99,,,-99.99,,2013-01-18 17:43:00,
2013-01-18 12:53:00,21.0,0.0,30.33,West,272,7.0,17.0,39,-99.99,,,-99.99,,2013-01-18 17:53:00,
2013-01-18 13:03:00,21.0,1.0,30.32,NW,313,4.0,20.0,40,-99.99,,,-99.99,,2013-01-18 18:03:00,
2013-01-18 13:13:00,21.0,1.0,30.32,NW,313,4.0,20.0,40,-99.99,,,-99.99,,2013-01-18 18:13:00,
2013-01-18 13:23:00,21.0,-1.0,30.33,WNW,292,8.0,20.0,38,-99.99,,,-99.99,,2013-01-18 18:23:00,
2013-01-18 13:33:00,22.0,0.0,30.33,WNW,290,4.0,14.0,38,-99.99,,,-99.99,,2013-01-18 18:33:00,
2013-01-18 13:43:00,22.0,0.0,30.33,WNW,290,4.0,14.0,38,-99.99,,,-99.99,,2013-01-18 18:43:00,
2013-01-18 13:53:00,22.0,0.0,30.34,WNW,285,6.0,17.0,37,-99.99,,,-99.99,,2013-01-18 18:53:00,
2013-01-18 14:03:00,22.0,0.0,30.34,West,280,10.0,23.0,37,-99.99,,,-99.99,,2013-01-18 19:03:00,
2013-01-18 14:13:00,22.0,0.0,30.34,West,280,10.0,23.0,37,-99.99,,,-99.99,,2013-01-18 19:13:00,
2013-01-18 14:23:00,23.0,2.0,30.35,West,272,4.0,10.0,39,-99.99,,,-99.99,,2013-01-18 19:23:00,
2013-01-18 14:33:00,23.0,1.0,30.34,WNW,286,5.0,12.0,37,-99.99,,,-99.99,,2013-01-18 19:33:00,
2013-01-18 14:43:00,23.0,1.0,30.34,WNW,286,5.0,12.0,37,-99.99,,,-99.99,,2013-01-18 19:43:00,
2013-01-18 14:53:00,22.0,0.0,30.35,WNW,286,8.0,13.0,37,-99.99,,,-99.99,,2013-01-18 19:53:00,
2013-01-18 15:03:00,23.0,2.0,30.35,WNW,296,3.0,9.0,39,-99.99,,,-99.99,,2013-01-18 20:03:00,
2013-01-18 15:13:00,23.0,2.0,30.35,WNW,296,3.0,9.0,39,-99.99,,,-99.99,,2013-01-18 20:13:00,
2013-01-18 15:23:00,23.0,2.0,30.37,West,280,3.0,11.0,39,-99.99,,,-99.99,,2013-01-18 20:23:00,
2013-01-18 15:33:00,23.0,1.0,30.37,WSW,256,10.0,15.0,37,-99.99,,,-99.99,,2013-01-18 20:33:00,
2013-01-18 15:43:00,23.0,1.0,30.37,WSW,256,10.0,15.0,37,-99.99,,,-99.99,,2013-01-18 20:43:00,
2013-01-18 15:53:00,23.0,1.0,30.37,West,277,4.0,10.0,38,-99.99,,,-99.99,,2013-01-18 20:53:00,
2013-01-18 16:03:00,23.0,1.0,30.36,WNW,294,6.0,10.0,37,-99.99,,,-99.99,,2013-01-18 21:03:00,
2013-01-18 16:13:00,23.0,1.0,30.36,WNW,294,6.0,10.0,37,-99.99,,,-99.99,,2013-01-18 21:13:00,
2013-01-18 16:23:00,22.0,0.0,30.36,West,277,4.0,13.0,38,-99.99,,,-99.99,,2013-01-18 21:23:00,
2013-01-18 16:33:00,22.0,0.0,30.36,West,268,4.0,11.0,37,-99.99,,,-99.99,,2013-01-18 21:33:00,
2013-01-18 16:43:00,22.0,0.0,30.36,West,268,4.0,11.0,37,-99.99,,,-99.99,,2013-01-18 21:43:00,
2013-01-18 16:53:00,22.0,1.0,30.37,West,276,0.0,6.0,39,-99.99,,,-99.99,,2013-01-18 21:53:00,
2013-01-18 17:03:00,22.0,0.0,30.37,WNW,290,3.0,10.0,38,-99.99,,,-99.99,,2013-01-18 22:03:00,
2013-01-18 17:12:00,22.0,0.0,30.37,WNW,290,3.0,10.0,38,-99.99,,,-99.99,,2013-01-18 22:12:00,
2013-01-18 17:23:00,21.0,1.0,30.38,NW,325,1.0,4.0,40,-99.99,,,-99.99,,2013-01-18 22:23:00,
2013-01-18 17:33:00,21.0,1.0,30.38,WNW,292,1.0,3.0,40,-99.99,,,-99.99,,2013-01-18 22:33:00,
2013-01-18 17:43:00,21.0,1.0,30.38,WNW,292,1.0,3.0,40,-99.99,,,-99.99,,2013-01-18 22:43:00,
2013-01-18 17:53:00,21.0,1.0,30.40,WNW,292,0.0,3.0,41,-99.99,,,-99.99,,2013-01-18 22:53:00,
2013-01-18 18:03:00,20.0,2.0,30.40,WNW,292,2.0,3.0,44,-99.99,,,-99.99,,2013-01-18 23:03:00,
2013-01-18 18:12:00,20.0,2.0,30.40,WNW,292,2.0,3.0,44,-99.99,,,-99.99,,2013-01-18 23:12:00,
2013-01-18 18:23:00,19.0,3.0,30.40,WNW,292,0.0,0.0,50,-99.99,,,-99.99,,2013-01-18 23:23:00,
2013-01-18 18:33:00,18.0,3.0,30.41,WNW,291,0.0,0.0,51,-99.99,,,-99.99,,2013-01-18 23:33:00,
2013-01-18 18:43:00,18.0,3.0,30.41,WNW,291,0.0,0.0,51,-99.99,,,-99.99,,2013-01-18 23:43:00,
2013-01-18 18:53:00,17.0,4.0,30.42,WNW,292,0.0,0.0,55,-99.99,,,-99.99,,2013-01-18 23:53:00,
2013-01-18 19:02:00,16.0,3.0,30.41,WNW,291,0.0,0.0,57,-99.99,,,-99.99,,2013-01-19 00:02:00,
2013-01-18 19:12:00,16.0,3.0,30.41,WNW,291,0.0,0.0,57,-99.99,,,-99.99,,2013-01-19 00:12:00,
2013-01-18 19:23:00,15.0,3.0,30.42,WNW,292,0.0,0.0,57,-99.99,,,-99.99,,2013-01-19 00:23:00,
2013-01-18 19:33:00,15.0,4.0,30.42,WNW,292,0.0,0.0,61,-99.99,,,-99.99,,2013-01-19 00:33:00,
2013-01-18 19:43:00,15.0,4.0,30.42,WNW,292,0.0,0.0,61,-99.99,,,-99.99,,2013-01-19 00:43:00,
2013-01-18 19:53:00,15.0,4.0,30.41,WNW,291,0.0,0.0,60,-99.99,,,-99.99,,2013-01-19 00:53:00,
2013-01-18 20:02:00,15.0,4.0,30.42,WNW,292,0.0,1.0,62,-99.99,,,-99.99,,2013-01-19 01:02:00,
2013-01-18 20:12:00,15.0,4.0,30.42,WNW,292,0.0,1.0,62,-99.99,,,-99.99,,2013-01-19 01:12:00,
2013-01-18 20:22:00,15.0,4.0,30.42,WNW,292,0.0,0.0,61,-99.99,,,-99.99,,2013-01-19 01:22:00,
2013-01-18 20:33:00,15.0,3.0,30.42,WNW,292,0.0,1.0,59,-99.99,,,-99.99,,2013-01-19 01:33:00,
2013-01-18 20:42:00,15.0,3.0,30.42,WNW,292,0.0,1.0,59,-99.99,,,-99.99,,2013-01-19 01:42:00,
2013-01-18 20:53:00,15.0,4.0,30.43,WNW,292,0.0,2.0,62,-99.99,,,-99.99,,2013-01-19 01:53:00,
2013-01-18 21:02:00,15.0,3.0,30.43,WNW,292,0.0,0.0,59,-99.99,,,-99.99,,2013-01-19 02:02:00,
2013-01-18 21:12:00,15.0,3.0,30.43,WNW,292,0.0,0.0,59,-99.99,,,-99.99,,2013-01-19 02:12:00,
2013-01-18 21:23:00,15.0,4.0,30.42,WNW,292,0.0,0.0,61,-99.99,,,-99.99,,2013-01-19 02:23:00,
2013-01-18 21:33:00,15.0,5.0,30.42,WNW,292,0.0,2.0,64,-99.99,,,-99.99,,2013-01-19 02:33:00,
2013-01-18 21:43:00,15.0,5.0,30.42,WNW,292,0.0,2.0,64,-99.99,,,-99.99,,2013-01-19 02:43:00,
2013-01-18 21:53:00,15.0,5.0,30.42,WNW,292,0.0,0.0,64,-99.99,,,-99.99,,2013-01-19 02:53:00,
2013-01-18 22:03:00,15.0,4.0,30.42,WNW,291,0.0,0.0,62,-99.99,,,-99.99,,2013-01-19 03:03:00,
2013-01-18 22:12:00,15.0,4.0,30.42,WNW,291,0.0,0.0,62,-99.99,,,-99.99,,2013-01-19 03:12:00,
2013-01-18 22:22:00,15.0,5.0,30.42,WNW,292,0.0,0.0,64,-99.99,,,-99.99,,2013-01-19 03:22:00,
2013-01-18 22:33:00,15.0,6.0,30.41,WNW,292,0.0,0.0,66,-99.99,,,-99.99,,2013-01-19 03:33:00,
2013-01-18 22:43:00,15.0,6.0,30.41,WNW,292,0.0,0.0,66,-99.99,,,-99.99,,2013-01-19 03:43:00,
2013-01-18 22:53:00,14.0,5.0,30.41,WNW,291,0.0,0.0,68,-99.99,,,-99.99,,2013-01-19 03:53:00,
2013-01-18 23:02:00,14.0,5.0,30.41,WNW,292,0.0,0.0,68,-99.99,,,-99.99,,2013-01-19 04:02:00,
2013-01-18 23:12:00,14.0,5.0,30.41,WNW,292,0.0,0.0,68,-99.99,,,-99.99,,2013-01-19 04:12:00,
2013-01-18 23:22:00,14.0,6.0,30.40,WNW,292,0.0,0.0,71,-99.99,,,-99.99,,2013-01-19 04:22:00,
2013-01-18 23:32:00,13.0,6.0,30.40,WNW,292,0.0,0.0,72,-99.99,,,-99.99,,2013-01-19 04:32:00,
2013-01-18 23:42:00,13.0,6.0,30.40,WNW,292,0.0,0.0,72,-99.99,,,-99.99,,2013-01-19 04:42:00,
2013-01-18 23:53:00,13.0,6.0,30.38,WNW,292,0.0,0.0,74,-99.99,,,-99.99,,2013-01-19 04:53:00,